When you browse on this site, cookies collect data to enhance your experience and personalize the content and advertising you see.
Visit our Privacy Policy to learn more. By continuing to use the site, you agree to this use of cookies and data.
  • In Romania
  • List of Countries
  • For 7 days
  • Water Temperature
  • Satellite Maps
  • Weather Map
  • Weather Widgets
  • user-avatar
    Login

    Hourly Weather Kingston

    Today, 23 February, Saturday

    Time Temperature Precipitation Wind Pressure Humidity
    00:00 +21°C° 0.1 mm 3 mps 708 mmHg 86%
    01:00 +21°C° 0.1 mm 3 mps 708 mmHg 87%
    02:00 +21°C° 0.1 mm 3 mps 708 mmHg 87%
    03:00 +20°C° 0.1 mm 3 mps 707 mmHg 87%
    04:00 +20°C° 0.1 mm 3 mps 707 mmHg 88%
    05:00 +20°C° 0 mm 3 mps 707 mmHg 87%
    06:00 +20°C° 0 mm 3 mps 708 mmHg 87%
    07:00 +20°C° 0 mm 3 mps 708 mmHg 86%
    08:00 +22°C° 0 mm 3 mps 708 mmHg 78%
    09:00 +25°C° 0 mm 4 mps 709 mmHg 70%
    10:00 +26°C° 0 mm 4 mps 710 mmHg 62%
    11:00 +27°C° 0 mm 4 mps 710 mmHg 59%
    12:00 +28°C° 0 mm 4 mps 709 mmHg 57%
    13:00 +29°C° 0 mm 4 mps 709 mmHg 54%
    14:00 +28°C° 0 mm 4 mps 709 mmHg 56%
    15:00 +28°C° 0 mm 4 mps 709 mmHg 57%
    16:00 +28°C° 0 mm 4 mps 708 mmHg 59%
    17:00 +26°C° 0 mm 3 mps 708 mmHg 67%
    18:00 +24°C° 0 mm 3 mps 708 mmHg 75%
    19:00 +23°C° 0 mm 2 mps 708 mmHg 83%
    20:00 +21°C° 0 mm 2 mps 708 mmHg 84%
    21:00 +21°C° 0 mm 2 mps 708 mmHg 86%
    22:00 +21°C° 0 mm 2 mps 709 mmHg 88%
    23:00 +20°C° 0 mm 2 mps 708 mmHg 89%

    Tomorrow, 24 February, Sunday

    Time Temperature Precipitation Wind Pressure Humidity
    00:00 +20°C° 0 mm 2 mps 708 mmHg 90%
    01:00 +20°C° 0 mm 2 mps 708 mmHg 91%
    02:00 +20°C° 0 mm 2 mps 708 mmHg 91%
    03:00 +20°C° 0 mm 2 mps 707 mmHg 91%
    04:00 +20°C° 0 mm 1 mps 707 mmHg 92%
    05:00 +20°C° 0 mm 1 mps 707 mmHg 91%
    06:00 +21°C° 0 mm 1 mps 707 mmHg 90%
    07:00 +21°C° 0 mm 1 mps 708 mmHg 90%
    08:00 +23°C° 0 mm 2 mps 709 mmHg 80%
    09:00 +25°C° 0 mm 2 mps 709 mmHg 71%
    10:00 +27°C° 0 mm 3 mps 710 mmHg 62%
    11:00 +27°C° 0.1 mm 3 mps 710 mmHg 60%
    12:00 +28°C° 0.1 mm 3 mps 710 mmHg 58%
    13:00 +28°C° 0.1 mm 3 mps 709 mmHg 56%
    14:00 +28°C° 0 mm 3 mps 709 mmHg 56%
    15:00 +28°C° 0 mm 3 mps 708 mmHg 56%
    16:00 +28°C° 0 mm 3 mps 708 mmHg 56%
    17:00 +26°C° 0 mm 3 mps 708 mmHg 63%
    18:00 +24°C° 0 mm 3 mps 708 mmHg 71%
    19:00 +23°C° 0 mm 2 mps 708 mmHg 78%
    20:00 +21°C° 0 mm 2 mps 708 mmHg 81%
    21:00 +21°C° 0 mm 2 mps 708 mmHg 83%
    22:00 +21°C° 0 mm 1 mps 709 mmHg 85%
    23:00 +21°C° 0 mm 1 mps 708 mmHg 86%

    Day after tomorrow, 25 February, Monday

    Time Temperature Precipitation Wind Pressure Humidity
    00:00 +21°C° 0 mm 1 mps 708 mmHg 87%
    01:00 +20°C° 0 mm 1 mps 708 mmHg 88%
    02:00 +20°C° 0 mm 1 mps 708 mmHg 88%
    03:00 +20°C° 0 mm 1 mps 708 mmHg 88%
    04:00 +20°C° 0 mm 1 mps 707 mmHg 89%
    05:00 +19°C° 0 mm 2 mps 708 mmHg 89%
    06:00 +19°C° 0 mm 2 mps 708 mmHg 88%
    07:00 +20°C° 0 mm 2 mps 708 mmHg 88%
    08:00 +23°C° 0 mm 2 mps 709 mmHg 78%
    09:00 +25°C° 0 mm 2 mps 710 mmHg 69%
    10:00 +27°C° 0 mm 2 mps 711 mmHg 60%
    11:00 +28°C° 0 mm 2 mps 710 mmHg 57%
    12:00 +28°C° 0 mm 3 mps 710 mmHg 54%
    13:00 +29°C° 0 mm 3 mps 710 mmHg 51%
    14:00 +29°C° 0 mm 3 mps 709 mmHg 53%
    15:00 +28°C° 0 mm 3 mps 709 mmHg 55%
    16:00 +28°C° 0 mm 3 mps 708 mmHg 58%
    17:00 +26°C° 0 mm 3 mps 708 mmHg 66%
    18:00 +24°C° 0 mm 2 mps 708 mmHg 75%
    19:00 +23°C° 0 mm 2 mps 708 mmHg 83%
    20:00 +21°C° 0 mm 2 mps 708 mmHg 86%
    21:00 +21°C° 0 mm 2 mps 709 mmHg 88%
    22:00 +20°C° 0 mm 2 mps 709 mmHg 90%
    23:00 +20°C° 0 mm 2 mps 709 mmHg 91%

    26 February, Tuesday

    Time Temperature Precipitation Wind Pressure Humidity
    00:00 +20°C° 0 mm 2 mps 709 mmHg 91%
    01:00 +20°C° 0 mm 2 mps 708 mmHg 91%
    02:00 +20°C° 0.2 mm 2 mps 708 mmHg 91%
    03:00 +20°C° 0.2 mm 2 mps 708 mmHg 91%
    04:00 +20°C° 0.2 mm 2 mps 708 mmHg 91%
    05:00 +20°C° 0.1 mm 2 mps 708 mmHg 90%
    06:00 +20°C° 0.1 mm 2 mps 708 mmHg 90%
    07:00 +20°C° 0.1 mm 2 mps 709 mmHg 90%
    08:00 +23°C° 0.1 mm 2 mps 709 mmHg 82%
    09:00 +24°C° 0.1 mm 2 mps 710 mmHg 73%
    10:00 +26°C° 0.1 mm 2 mps 711 mmHg 65%
    11:00 +27°C° 0.1 mm 2 mps 710 mmHg 61%
    12:00 +28°C° 0.1 mm 2 mps 710 mmHg 57%
    13:00 +29°C° 0.1 mm 2 mps 710 mmHg 53%
    14:00 +28°C° 0.2 mm 2 mps 709 mmHg 54%
    15:00 +28°C° 0.2 mm 2 mps 709 mmHg 56%
    16:00 +27°C° 0.2 mm 2 mps 708 mmHg 58%
    17:00 +26°C° 0 mm 2 mps 708 mmHg 65%
    18:00 +24°C° 0 mm 2 mps 708 mmHg 72%
    19:00 +23°C° 0 mm 2 mps 708 mmHg 78%
    20:00 +21°C° 0 mm 2 mps 709 mmHg 81%
    21:00 +21°C° 0 mm 2 mps 709 mmHg 83%
    22:00 +21°C° 0 mm 2 mps 709 mmHg 85%
    23:00 +20°C° 0 mm 2 mps 709 mmHg 87%

    27 February, Wednesday

    Time Temperature Precipitation Wind Pressure Humidity
    00:00 +20°C° 0 mm 2 mps 708 mmHg 88%
    01:00 +20°C° 0 mm 2 mps 708 mmHg 89%
    02:00 +20°C° 0 mm 2 mps 708 mmHg 89%
    03:00 +20°C° 0 mm 2 mps 708 mmHg 90%
    04:00 +20°C° 0 mm 2 mps 707 mmHg 91%
    05:00 +20°C° 0 mm 2 mps 708 mmHg 90%
    06:00 +20°C° 0 mm 2 mps 708 mmHg 89%
    07:00 +20°C° 0 mm 2 mps 708 mmHg 88%
    08:00 +23°C° 0.1 mm 2 mps 709 mmHg 79%
    09:00 +25°C° 0.1 mm 2 mps 709 mmHg 70%
    10:00 +27°C° 0.1 mm 3 mps 710 mmHg 60%
    11:00 +27°C° 0.1 mm 3 mps 710 mmHg 58%
    12:00 +28°C° 0.1 mm 3 mps 709 mmHg 55%
    13:00 +29°C° 0.1 mm 3 mps 709 mmHg 52%
    14:00 +28°C° 0 mm 4 mps 708 mmHg 53%
    15:00 +28°C° 0 mm 4 mps 708 mmHg 54%
    16:00 +28°C° 0 mm 4 mps 707 mmHg 55%
    17:00 +26°C° 0 mm 3 mps 707 mmHg 62%
    18:00 +24°C° 0 mm 3 mps 707 mmHg 70%
    19:00 +23°C° 0 mm 2 mps 707 mmHg 77%
    20:00 +21°C° 0 mm 2 mps 708 mmHg 80%
    21:00 +21°C° 0 mm 2 mps 708 mmHg 82%
    22:00 +21°C° 0 mm 1 mps 708 mmHg 85%
    23:00 +21°C° 0 mm 1 mps 707 mmHg 86%

    28 February, Thursday

    Time Temperature Precipitation Wind Pressure Humidity
    00:00 +21°C° 0 mm 1 mps 707 mmHg 87%
    01:00 +21°C° 0 mm 1 mps 707 mmHg 88%
    02:00 +21°C° 0 mm 1 mps 707 mmHg 89%
    03:00 +20°C° 0 mm 1 mps 706 mmHg 89%
    04:00 +20°C° 0 mm 1 mps 706 mmHg 90%
    05:00 +21°C° 0 mm 1 mps 707 mmHg 89%
    06:00 +21°C° 0 mm 1 mps 707 mmHg 88%
    07:00 +20°C° 0 mm 2 mps 707 mmHg 87%
    08:00 +23°C° 0.1 mm 2 mps 708 mmHg 78%
    09:00 +25°C° 0.1 mm 2 mps 708 mmHg 69%
    10:00 +27°C° 0.1 mm 3 mps 709 mmHg 59%
    11:00 +27°C° 0.5 mm 3 mps 709 mmHg 60%
    12:00 +27°C° 0.5 mm 3 mps 708 mmHg 60%
    13:00 +27°C° 0.5 mm 3 mps 708 mmHg 61%
    14:00 +27°C° 0.4 mm 3 mps 707 mmHg 63%
    15:00 +26°C° 0.4 mm 3 mps 707 mmHg 65%
    16:00 +26°C° 0.4 mm 3 mps 706 mmHg 66%
    17:00 +25°C° 0.1 mm 2 mps 706 mmHg 71%
    18:00 +23°C° 0.1 mm 2 mps 707 mmHg 76%
    19:00 +22°C° 0.1 mm 1 mps 707 mmHg 80%
    20:00 +22°C° 0 mm 1 mps 707 mmHg 82%
    21:00 +21°C° 0 mm 1 mps 707 mmHg 83%
    22:00 +21°C° 0 mm 1 mps 707 mmHg 85%
    23:00 +21°C° 0.1 mm 1 mps 707 mmHg 85%
    Show more